Location: Colorado Springs
(38.8340°N, 104.8210°W)
Time: 01:06:24
(UTC-06:00)

Vanguard 3 - Visible Passes

Search period start: 20 October 2017 00:00
Search period end: 30 October 2017 00:00
Orbit: 510 x 3263 km, 33.3° (Epoch: 19 October)

Date Brightness Start Highest point End Pass type
(mag) Time Alt. Az. Time Alt. Az. Time Alt. Az.
20 Oct 11.1 01:51:37 11° ESE 01:51:37 11° ESE 01:52:31 10° ESE visible
20 Oct 9.9 03:56:14 33° S 03:59:30 36° SSE 04:08:34 10° E visible
20 Oct 8.9 06:00:50 11° WSW 06:13:05 56° S 06:20:10 10° E visible
21 Oct 10.4 02:46:50 27° SE 02:46:50 27° SE 02:54:15 10° E visible
21 Oct 9.4 04:51:26 29° SW 04:58:30 50° SSE 05:07:04 10° E visible
22 Oct 11.1 01:37:23 12° ESE 01:37:23 12° ESE 01:38:28 10° ESE visible
22 Oct 9.8 03:41:59 41° S 03:43:28 42° SSE 03:53:31 10° E visible
22 Oct 9.0 05:46:34 18° WSW 05:57:21 61° S 06:05:06 10° E visible
23 Oct 10.4 02:32:27 29° SE 02:32:27 29° SE 02:39:15 10° E visible
23 Oct 9.4 04:37:03 39° SW 04:42:34 56° SSE 04:51:56 10° E visible
23 Oct 8.7 06:43:31 10° W 06:56:02 63° S 07:02:54 10° ESE visible
24 Oct 11.1 01:22:53 12° E 01:22:53 12° E 01:23:47 10° E visible
24 Oct 9.8 03:27:28 48° SSE 03:27:28 48° SSE 03:38:19 10° E visible
24 Oct 9.0 05:32:03 24° WSW 05:41:33 65° S 05:49:59 10° E visible
25 Oct 10.4 02:17:51 29° ESE 02:17:51 29° ESE 02:24:02 10° E visible
25 Oct 9.4 04:22:25 49° SW 04:26:30 61° SSE 04:36:43 10° E visible
25 Oct 8.9 06:27:00 11° W 06:40:19 64° S 06:47:48 10° ESE visible
26 Oct 11.2 01:08:11 11° E 01:08:11 11° E 01:08:41 10° E visible
26 Oct 9.8 03:12:46 51° SE 03:12:46 51° SE 03:23:00 10° E visible
26 Oct 9.1 05:17:20 31° WSW 05:25:37 68° S 05:34:48 10° E visible
27 Oct 10.5 02:03:04 28° ESE 02:03:04 28° ESE 02:08:38 10° E visible
27 Oct 9.4 04:07:39 58° SSW 04:10:20 65° S 04:21:25 10° E visible
27 Oct 9.0 06:12:13 16° W 06:24:30 64° S 06:32:37 10° ESE visible
28 Oct 9.9 02:57:55 51° SE 02:57:55 51° SE 03:07:34 10° E visible
28 Oct 9.2 05:02:30 39° WSW 05:09:36 69° S 05:19:33 10° E visible
29 Oct 10.7 01:48:11 26° E 01:48:11 26° E 01:53:05 10° E visible
29 Oct 9.5 03:52:45 66° SSW 03:54:03 68° S 04:06:02 10° E visible
29 Oct 9.1 05:57:20 21° W 06:08:34 64° SSW 06:17:24 10° ESE visible
